Wind_Speed
57 59 60 59 59 58 57 57 56 54 54 54 54 53 51 50 49 46 45 44 42 40 39 39 37 36 36 34 33 32 31 30 30 29 29 30 30 30 30 30 30 31 32 33
57 58 57 57 58 58 58 58 57 55 54 55 55 55 53 53 51 49 47 45 43 42 41 40 39 37 36 35 34 33 32 32 31 31 31 32 32 31 31 31 32 33 34 34
56 55 55 57 57 58 58 57 56 55 55 56 57 57 56 54 53 51 49 47 45 44 43 41 40 38 37 36 35 34 34 33 33 33 33 33 33 33 33 33 34 34 35 35
52 52 54 57 59 57 57 55 55 56 56 57 58 59 57 55 55 53 50 48 46 45 44 43 41 40 38 37 36 35 35 34 34 34 34 34 34 34 34 35 35 35 35 35
50 51 52 56 57 57 56 54 55 55 56 57 58 59 58 56 55 53 50 48 47 45 45 44 42 41 39 39 38 36 36 35 35 35 35 35 35 35 36 36 36 36 35 35
47 48 50 53 55 55 55 53 53 54 56 59 58 59 60 56 53 52 51 49 47 46 45 44 43 43 41 40 39 38 37 36 36 36 36 36 36 36 36 36 36 36 36 36
46 47 48 51 55 55 54 53 52 54 57 59 57 59 60 55 51 49 49 49 48 47 46 45 44 43 42 41 40 39 38 37 37 36 36 36 36 36 36 36 36 36 36 36
43 45 46 49 54 55 55 54 54 54 55 55 56 58 58 53 50 47 47 47 47 47 47 46 45 43 42 41 40 39 38 37 37 37 36 36 36 36 36 36 36 36 36 36
39 41 43 46 50 54 55 55 52 52 52 53 55 55 55 52 49 46 45 45 46 46 46 45 45 44 42 41 40 39 39 38 37 37 36 36 36 36 36 35 35 35 35 35
37 39 41 42 47 51 52 51 53 51 51 52 52 52 52 48 46 44 43 44 44 45 45 45 44 43 41 40 40 40 39 38 37 37 36 36 35 35 35 35 35 35 35 35
36 38 39 42 47 49 51 52 52 52 52 51 51 49 46 42 40 40 41 42 43 44 44 44 43 42 41 40 40 39 39 38 37 36 36 35 34 34 34 34 34 34 34 34
37 38 39 40 42 46 48 51 52 52 53 51 49 47 42 39 38 39 40 41 41 42 42 42 41 41 41 40 40 39 38 37 36 35 35 34 34 34 34 34 34 33 33 33
38 38 39 40 42 44 47 49 51 51 52 52 49 47 41 38 37 38 39 39 39 39 40 40 40 40 40 39 39 38 37 36 35 35 34 34 33 33 33 33 33 33 33 32
39 40 40 40 42 43 43 46 49 51 53 53 51 46 43 38 36 36 37 37 38 38 39 39 39 39 39 38 37 36 36 35 34 34 34 33 33 33 33 32 32 32 32 32
38 41 41 41 42 44 42 43 46 49 50 50 48 47 44 40 39 37 36 37 38 38 38 38 38 38 37 37 36 35 34 34 33 33 33 32 32 32 32 31 31 31 31 31
37 38 41 42 44 45 45 42 43 46 48 47 46 47 45 43 41 39 37 37 38 38 38 38 38 37 37 36 35 34 33 33 33 32 32 31 31 31 31 31 30 30 30 30
35 37 38 40 43 45 47 43 41 42 46 47 47 45 46 45 42 40 38 37 37 38 39 39 38 37 36 36 35 34 33 32 32 32 31 31 30 30 30 30 30 29 30 30
33 35 37 38 41 43 43 43 42 44 45 46 46 46 46 46 43 42 41 40 40 40 40 39 39 37 36 35 34 34 33 32 31 31 30 30 29 29 29 29 29 29 29 30
32 34 35 36 38 40 41 41 40 42 45 46 47 46 46 46 46 45 44 43 42 41 41 39 38 37 36 35 34 33 32 31 30 30 29 29 29 28 28 28 28 28 29 30
33 34 34 35 37 39 38 38 38 41 43 44 46 46 47 48 47 45 44 43 41 41 41 40 39 38 37 36 34 33 31 30 29 29 29 28 28 28 28 28 28 29 30 30
34 35 34 34 36 38 37 37 38 41 40 41 43 45 47 47 44 41 42 43 42 41 41 40 39 38 37 36 34 33 31 30 29 29 29 28 28 28 28 28 29 29 30 30
34 36 35 35 37 37 37 38 39 39 39 40 42 44 45 44 43 43 42 43 43 41 41 40 39 37 36 35 34 33 32 31 30 29 29 28 28 28 28 28 29 29 30 31
34 35 35 36 36 35 37 39 40 39 39 39 41 43 43 43 43 43 43 43 42 41 40 38 37 36 36 35 34 33 32 31 30 29 29 29 29 28 28 29 29 30 30 31
34 36 37 37 35 35 37 39 41 40 40 40 40 42 43 42 42 42 42 42 41 41 39 37 36 36 35 35 34 33 32 31 30 29 29 28 28 28 28 29 29 30 31 31
33 36 37 37 36 35 37 37 40 41 41 41 39 41 42 42 41 41 41 42 41 40 38 37 36 35 34 33 33 32 31 31 30 29 29 28 28 28 29 29 29 30 30 31
31 35 36 35 35 37 37 37 39 41 42 42 40 40 41 41 41 40 39 40 39 39 39 38 36 35 34 33 32 32 31 31 30 29 29 29 28 29 29 29 30 30 30 31
Wind_Direction
226 225 225 224 225 227 228 227 227 226 226 227 226 225 222 222 223 221 220 220 219 219 221 222 223 225 227 230 232 235 238 242 245 249 253 257 261 265 269 272 276 280 283 286
226 224 223 224 225 226 226 226 226 226 226 227 226 225 223 223 223 222 221 221 220 220 220 222 223 226 228 230 233 237 240 243 246 250 254 258 262 266 270 273 276 279 282 286
225 223 222 222 223 225 226 226 226 226 226 227 228 226 224 223 223 223 222 221 221 221 222 223 224 226 229 232 235 238 241 244 247 252 255 259 262 266 270 273 276 279 282 286
223 221 221 221 221 223 225 224 226 227 227 228 228 228 224 224 223 223 223 223 223 223 224 225 226 227 230 232 235 238 242 245 249 253 257 260 263 266 270 273 276 279 282 285
220 221 220 220 220 222 224 224 226 227 228 229 228 230 224 224 224 223 224 224 224 225 226 227 228 229 231 233 236 239 242 246 250 254 258 260 263 267 270 273 276 279 282 284
220 220 220 219 218 220 221 223 225 227 229 230 227 231 227 224 224 224 225 226 226 227 229 229 230 231 232 234 237 240 243 247 251 254 257 261 264 268 270 273 275 278 281 284
219 219 220 218 217 217 218 221 223 226 228 229 227 231 229 224 224 225 226 228 228 229 230 231 232 233 234 236 239 241 244 247 250 254 258 261 264 267 270 273 275 278 281 284
221 220 220 219 218 217 217 220 223 227 228 230 229 230 229 225 224 225 227 228 229 229 231 232 233 234 236 237 239 242 245 247 251 254 257 261 264 267 269 272 275 278 280 282
223 222 220 220 218 218 218 219 221 226 228 230 231 230 229 227 226 226 227 228 229 230 231 232 233 234 235 237 239 242 244 247 250 254 257 260 263 266 269 271 274 276 279 281
222 223 220 219 218 217 219 220 220 222 225 228 229 229 228 226 226 225 226 228 229 231 231 232 233 235 236 238 240 241 244 247 251 254 257 260 263 265 268 270 273 275 278 280
221 221 221 220 218 217 217 218 220 223 225 226 228 228 226 225 224 224 224 226 228 229 230 231 233 234 236 237 239 243 246 248 251 254 257 259 262 265 267 269 272 274 277 279
222 223 222 220 219 221 221 222 222 224 225 225 228 226 225 223 223 222 222 224 225 228 230 231 232 234 235 237 240 243 246 248 251 254 256 259 261 264 266 268 271 274 276 279
221 223 223 221 218 219 220 220 222 223 226 225 226 225 223 223 223 222 222 223 224 226 228 230 231 234 236 238 240 242 245 248 250 253 256 258 260 263 265 267 270 272 275 278
223 224 224 223 221 219 221 220 221 223 225 225 223 223 220 221 220 218 218 219 221 224 226 228 230 233 235 237 239 242 245 248 250 252 255 258 260 262 264 267 269 272 275 278
226 227 226 225 225 224 222 222 221 223 224 224 221 221 219 220 218 216 216 218 220 222 224 226 228 231 233 236 239 242 244 247 250 252 255 257 260 262 264 267 270 273 275 277
226 229 228 229 229 228 224 222 223 222 222 222 220 219 219 220 219 218 218 218 219 221 223 225 227 230 233 236 238 241 244 246 249 252 254 256 259 261 264 267 270 273 275 278
227 229 229 229 229 230 227 224 223 221 220 221 220 218 219 219 220 219 219 218 219 220 222 225 228 231 233 235 238 242 244 246 249 252 254 256 259 261 264 267 270 273 276 278
225 227 230 229 228 231 228 226 225 223 221 221 219 218 218 219 219 219 218 217 218 220 222 224 227 230 232 235 238 241 244 247 250 252 255 257 259 261 264 267 269 273 276 279
225 223 227 230 231 230 226 225 224 224 221 220 219 219 218 218 218 218 218 218 218 219 222 224 228 230 232 235 238 240 244 247 250 253 255 257 259 261 263 266 269 273 276 279
229 225 227 229 230 227 222 222 223 222 221 218 220 219 219 219 220 217 217 218 219 220 222 224 227 230 233 235 238 241 243 246 249 252 254 257 258 260 263 266 270 274 278 281
231 228 228 227 228 225 220 220 220 221 219 219 219 218 219 220 218 214 216 217 218 220 221 223 227 229 232 234 237 240 243 245 248 251 253 256 258 260 263 267 271 275 279 282
233 229 227 227 228 225 220 221 220 219 218 218 218 217 217 217 216 215 215 217 219 221 222 224 227 229 230 233 236 239 241 244 247 250 253 256 259 262 264 268 272 276 280 282
233 229 226 226 226 224 220 218 217 218 216 216 216 215 216 217 217 217 218 219 221 223 223 225 227 227 230 232 235 237 239 243 246 250 252 255 259 263 266 269 274 277 280 283
232 229 227 225 222 221 217 215 215 214 214 214 215 214 214 215 216 218 218 218 219 222 223 225 225 227 230 232 234 235 238 241 245 249 251 255 258 262 267 272 275 278 281 284
231 228 227 225 220 219 217 215 213 214 214 213 214 215 215 214 215 216 217 219 219 219 221 223 225 226 229 231 233 235 237 241 245 248 251 254 259 264 269 273 277 280 283 286
230 229 226 222 218 216 213 211 211 213 214 214 213 213 214 215 216 216 217 218 218 218 219 222 225 226 228 231 232 234 237 241 245 248 251 255 260 265 269 273 278 281 284 287
Height
5627 5634 5643 5655 5665 5675 5682 5688 5696 5705 5711 5716 5722 5729 5737 5742 5747 5753 5759 5765 5770 5775 5780 5783 5787 5791 5794 5798 5801 5804 5807 5809 5811 5813 5815 5815 5816 5816 5816 5815 5814 5813 5812 5810
5613 5621 5637 5645 5653 5660 5668 5675 5684 5693 5699 5705 5711 5717 5725 5731 5737 5745 5751 5756 5762 5768 5772 5776 5780 5784 5788 5791 5795 5798 5801 5803 5805 5807 5808 5809 5809 5809 5809 5809 5808 5807 5805 5804
5601 5616 5625 5632 5640 5648 5656 5665 5675 5682 5689 5693 5699 5705 5713 5721 5728 5735 5742 5748 5754 5759 5764 5769 5773 5777 5781 5785 5788 5791 5794 5796 5798 5799 5800 5801 5802 5802 5802 5802 5801 5799 5798 5796
5591 5603 5611 5618 5628 5637 5646 5657 5664 5670 5676 5681 5688 5693 5704 5711 5717 5725 5734 5740 5746 5752 5757 5761 5766 5770 5774 5778 5781 5784 5786 5788 5790 5792 5793 5794 5795 5795 5795 5794 5793 5792 5791 5789
5582 5592 5599 5607 5619 5629 5638 5647 5653 5659 5664 5670 5676 5681 5693 5701 5708 5718 5726 5732 5738 5743 5748 5753 5758 5762 5766 5770 5773 5776 5778 5781 5783 5784 5786 5787 5787 5787 5787 5786 5785 5784 5783 5782
5574 5582 5589 5599 5610 5618 5627 5635 5642 5647 5651 5656 5666 5671 5680 5692 5702 5711 5717 5723 5729 5734 5740 5745 5749 5754 5758 5762 5765 5768 5771 5773 5775 5777 5778 5779 5779 5779 5779 5778 5777 5776 5775 5774
5564 5571 5579 5588 5597 5605 5614 5623 5630 5634 5637 5645 5657 5659 5670 5686 5695 5702 5708 5714 5720 5725 5730 5735 5740 5745 5750 5754 5757 5760 5763 5765 5767 5769 5770 5771 5771 5771 5771 5770 5770 5769 5768 5766
5557 5564 5571 5579 5587 5596 5604 5613 5621 5626 5632 5640 5645 5649 5664 5677 5685 5692 5698 5703 5709 5715 5721 5726 5731 5736 5741 5745 5749 5752 5755 5757 5759 5761 5762 5763 5763 5763 5763 5762 5762 5761 5760 5758
5551 5558 5565 5572 5580 5588 5594 5601 5612 5618 5624 5629 5634 5644 5655 5665 5675 5682 5688 5694 5699 5705 5711 5717 5722 5727 5732 5736 5740 5743 5746 5749 5751 5752 5753 5754 5754 5755 5755 5754 5754 5753 5752 5750
5544 5551 5558 5564 5570 5577 5586 5594 5601 5606 5612 5619 5626 5635 5646 5657 5666 5673 5679 5684 5690 5696 5701 5707 5712 5718 5723 5727 5731 5734 5737 5740 5742 5744 5745 5746 5746 5746 5746 5746 5746 5745 5744 5743
5537 5543 5549 5555 5561 5569 5577 5583 5589 5597 5604 5612 5619 5631 5641 5650 5657 5664 5670 5675 5680 5686 5692 5698 5703 5708 5713 5717 5721 5725 5728 5731 5733 5735 5736 5737 5738 5738 5738 5738 5738 5737 5736 5735
5530 5536 5541 5548 5556 5561 5568 5575 5582 5590 5596 5604 5612 5625 5633 5641 5648 5654 5660 5665 5671 5677 5683 5688 5694 5699 5703 5708 5712 5716 5719 5722 5724 5726 5728 5729 5730 5730 5730 5730 5730 5729 5728 5727
5523 5529 5534 5539 5546 5551 5557 5564 5572 5581 5588 5595 5604 5618 5625 5632 5639 5645 5651 5657 5663 5668 5674 5679 5685 5690 5695 5699 5703 5707 5710 5713 5716 5718 5719 5720 5721 5722 5722 5722 5722 5721 5720 5719
5515 5520 5526 5532 5536 5543 5549 5557 5564 5570 5576 5586 5597 5609 5617 5624 5630 5637 5643 5648 5654 5660 5665 5671 5676 5681 5686 5690 5694 5698 5701 5704 5707 5709 5711 5712 5713 5714 5714 5714 5714 5713 5712 5711
5507 5512 5517 5523 5528 5535 5542 5549 5554 5561 5571 5580 5592 5600 5609 5615 5621 5628 5634 5640 5646 5651 5657 5662 5667 5672 5677 5681 5685 5689 5693 5696 5698 5700 5702 5703 5705 5705 5706 5706 5706 5705 5704 5703
5500 5505 5510 5515 5520 5525 5532 5540 5546 5554 5564 5573 5582 5590 5599 5605 5612 5619 5625 5631 5637 5643 5648 5653 5658 5664 5668 5673 5677 5681 5684 5687 5690 5692 5694 5695 5696 5697 5697 5698 5697 5697 5696 5695
5493 5498 5503 5508 5513 5516 5524 5533 5540 5548 5556 5565 5573 5584 5588 5596 5603 5611 5617 5623 5629 5634 5640 5645 5650 5655 5660 5665 5669 5673 5676 5679 5681 5684 5685 5687 5688 5689 5690 5690 5690 5689 5689 5688
5486 5490 5494 5500 5505 5509 5521 5527 5533 5541 5548 5556 5564 5572 5579 5587 5594 5601 5608 5614 5619 5625 5631 5637 5642 5647 5652 5657 5661 5665 5668 5671 5673 5675 5677 5679 5680 5681 5682 5682 5682 5682 5681 5680
5479 5483 5487 5492 5496 5502 5513 5520 5527 5533 5540 5548 5556 5563 5570 5577 5583 5591 5598 5604 5611 5617 5623 5629 5634 5639 5644 5649 5653 5657 5660 5663 5665 5668 5670 5671 5673 5674 5674 5674 5674 5674 5673 5672
5471 5474 5479 5484 5489 5496 5508 5514 5518 5524 5531 5540 5546 5554 5560 5566 5574 5584 5591 5597 5604 5609 5615 5621 5626 5631 5636 5641 5645 5649 5652 5655 5658 5660 5662 5663 5665 5666 5666 5666 5666 5666 5665 5663
5463 5466 5471 5476 5480 5488 5499 5504 5509 5517 5527 5533 5538 5545 5551 5558 5569 5578 5583 5589 5595 5601 5607 5613 5618 5624 5629 5633 5637 5641 5645 5648 5650 5652 5654 5656 5657 5658 5658 5658 5658 5658 5657 5655
5455 5459 5464 5468 5472 5484 5491 5496 5502 5509 5517 5522 5528 5535 5543 5552 5560 5566 5573 5580 5586 5593 5599 5605 5610 5616 5621 5625 5630 5634 5637 5640 5642 5645 5647 5648 5649 5650 5650 5651 5650 5649 5648 5647
5446 5452 5456 5461 5468 5475 5480 5486 5493 5499 5506 5512 5519 5526 5534 5542 5550 5557 5565 5572 5579 5585 5592 5597 5603 5608 5613 5618 5622 5626 5630 5632 5635 5637 5639 5641 5642 5642 5643 5643 5642 5641 5640 5639
5438 5442 5446 5451 5459 5465 5470 5476 5483 5490 5497 5503 5510 5518 5526 5534 5542 5549 5557 5564 5571 5578 5584 5590 5596 5600 5605 5610 5614 5618 5622 5625 5627 5630 5632 5633 5634 5635 5635 5635 5634 5633 5632 5630
5430 5433 5437 5442 5450 5456 5461 5468 5474 5481 5488 5495 5503 5511 5518 5526 5534 5541 5548 5556 5563 5570 5576 5583 5588 5593 5598 5602 5606 5610 5614 5617 5620 5622 5624 5625 5626 5627 5627 5627 5626 5625 5624 5622
5422 5425 5429 5435 5442 5446 5452 5458 5465 5472 5480 5487 5495 5503 5511 5519 5526 5533 5540 5548 5555 5562 5568 5574 5580 5585 5590 5594 5599 5602 5606 5609 5612 5614 5616 5618 5619 5619 5619 5619 5618 5617 5615 5613